Location: Ch?enovice
(49.7164°N, 15.2160°E)
Time: 16:48:53
(UTC+00:00)

SL-8 R/B - Pass Details

Date: 23 May 2024
Orbit: 652 x 662 km, 48.4° (Epoch: 13 June)

Event Time Altitude Azimuth Distance (km) Brightness Sun altitude
Rises 00:59:29 0° 282° (WNW) 2,978 6.9 -14.5°
Reaches altitude 10° 01:02:03 10° 272° (W) 2,066 6.0 -14.3°
Maximum altitude 01:06:11 30° 212° (SSW) 1,171 4.4 -13.9°
Drops below altitude 10° 01:10:20 10° 151° (SSE) 2,064 6.0 -13.6°
Sets 01:12:53 0° 141° (SE) 2,975 6.9 -13.4°
